This is the latest recevied weather packets stored in our database for station/object SQ3VAS-10. If no packets are shown the sender has not sent any weather packets the latest 10 day(s).
| Time | Temp. | Humidity | Pressure | Rain* | Wind** | Luminosity | Snow |
|---|---|---|---|---|---|---|---|
| 1777932362 | 13.89° C | 76% | 1013.2 hPa | - | - | - | - |
| 1777931789 | 13.89° C | 75% | 1013.3 hPa | - | - | - | - |
| 1777931217 | 14.44° C | 75% | 1013.3 hPa | - | - | - | - |
| 1777930645 | 14.44° C | 74% | 1013.3 hPa | - | - | - | - |
| 1777930074 | 14.44° C | 73% | 1013.3 hPa | - | - | - | - |
| 1777929503 | 15° C | 72% | 1013.3 hPa | - | - | - | - |
| 1777928929 | 15° C | 72% | 1013.2 hPa | - | - | - | - |
| 1777928357 | 15.56° C | 71% | 1013.2 hPa | - | - | - | - |
| 1777927786 | 15.56° C | 70% | 1013.2 hPa | - | - | - | - |
| 1777927214 | 16.11° C | 69% | 1013.3 hPa | - | - | - | - |
| 1777926642 | 16.11° C | 69% | 1013.3 hPa | - | - | - | - |
| 1777926069 | 16.67° C | 68% | 1013.2 hPa | - | - | - | - |
| 1777925497 | 16.67° C | 68% | 1013.2 hPa | - | - | - | - |
| 1777924925 | 16.67° C | 68% | 1013.1 hPa | - | - | - | - |
| 1777924354 | 17.22° C | 67% | 1013.1 hPa | - | - | - | - |
| 1777923782 | 17.22° C | 66% | 1012.9 hPa | - | - | - | - |
| 1777923209 | 17.78° C | 65% | 1012.9 hPa | - | - | - | - |
| 1777922637 | 17.78° C | 64% | 1012.9 hPa | - | - | - | - |
| 1777922066 | 18.33° C | 64% | 1012.9 hPa | - | - | - | - |
| 1777921494 | 18.33° C | 62% | 1012.8 hPa | - | - | - | - |
| 1777920922 | 18.89° C | 61% | 1012.7 hPa | - | - | - | - |
| 1777919780 | 19.44° C | 60% | 1012.4 hPa | - | - | - | - |
| 1777919208 | 20° C | 58% | 1012.4 hPa | - | - | - | - |
| 1777918636 | 20.56° C | 57% | 1012.2 hPa | - | - | - | - |
| 1777918065 | 21.11° C | 55% | 1012.1 hPa | - | - | - | - |
* Rain since midnight (hover to see other rain measurements)
** Current wind speed in m/s (hover to see current wind gust speed)